Location: Bronneger
(52.9479°N, 6.8180°E)
Time: 15:43:36
(UTC+00:00)

Daily predictions for brighter satellites

Satellite Brightness Start Highest point End
(mag) Time Altitude Azimuth Time Altitude Azimuth Time Altitude Azimuth
Cosmos 1980 Rocket 2.4 19:44:51 10° NNW 19:50:32 63° NE 19:56:11 10° SE
SL-08 R/B 3.7 19:46:03 10° NNE 19:50:45 47° E 19:55:22 10° S
Okean 1 Rocket 3.2 19:50:16 10° S 19:54:32 55° E 19:58:53 10° NNE
Meteor 2-3 Rocket 3.8 19:50:20 10° NNW 19:56:00 88° WSW 20:01:39 10° S
Cosmos 2084 3.4 19:54:04 10° SW 19:58:12 90° SE 20:02:23 10° NE
SPOT 3 Rocket 4.2 19:54:37 10° SE 19:59:24 41° ENE 20:04:14 10° N
CZ-4 R/B 2.8 19:57:12 10° SSW 20:00:30 33° W 20:03:49 10° NNW
Cosmos 1850 Rocket 4.0 19:55:18 10° NNW 20:00:30 81° ENE 20:05:41 10° SSE
CZ-4B R/B 3.6 19:58:48 10° SE 20:01:43 28° ENE 20:04:41 10° N
Cosmos 1782 3.8 19:59:39 10° SE 20:02:28 23° E 20:05:18 10° NE
ASTEX 1 4.3 20:02:05 10° SSW 20:06:54 52° W 20:11:46 10° NNW
Cosmos 2084 Rocket 4.0 20:06:06 10° NW 20:10:11 50° NE 20:14:18 10° ESE
CZ-4B R/B 3.8 20:04:50 10° S 20:10:27 63° WSW 20:16:04 10° NNW
Cosmos 2056 Rocket 3.9 20:05:08 10° SSW 20:10:31 72° WNW 20:15:55 10° NNE
Cosmos 1833 Rocket 2.7 20:05:54 10° SSW 20:11:31 88° ESE 20:17:11 10° NNE
Cosmos 1110 Rocket 4.1 20:06:45 10° S 20:11:56 58° ESE 20:17:09 10° NNE
Cosmos 1802 Rocket 4.1 20:06:17 10° S 20:12:21 59° E 20:18:23 10° NNE
Cosmos 1624 Rocket 4.4 20:08:18 10° SW 20:13:28 70° WNW 20:18:39 10° NNE
Terra 2.6 20:10:06 10° S 20:14:39 50° W 20:19:15 10° NNW
Gbstr 26 Del rocket 3.5 20:09:44 10° W 20:14:52 54° SSW 20:18:53 11° SE
Cosmos 2360 Rocket 4.0 20:11:36 10° NNW 20:16:02 23° NNE 20:20:28 10° E
Sich 1 Rocket 3.5 20:13:01 10° S 20:17:22 80° E 20:21:46 10° NNE
SJ 16-02 4.2 20:17:43 10° WNW 20:19:06 11° W 20:20:31 10° WSW
YAOGAN 11 4.2 20:16:06 10° NNE 20:20:27 57° ESE 20:24:49 10° S
CZ-2C R/B 3.3 20:23:39 13° ESE 20:25:31 25° ENE 20:27:54 10° N
Cosmos 1743 2.0 20:22:43 10° N 20:25:45 84° ENE 20:28:34 11° SSE
Meteor 1-27 4.3 20:26:17 10° S 20:31:51 62° E 20:37:24 10° NNE
Cosmos 44 Rocket 3.6 20:27:14 10° SSW 20:32:07 48° ESE 20:37:06 10° NE
ISS -2.3 20:30:27 10° SSW 20:32:54 19° SE 20:35:05 11° ESE
Cosmos 1459 Rocket 4.1 20:27:08 10° SSW 20:33:24 81° W 20:39:36 10° N
Cosmos 2219 Rocket 4.1 20:29:18 10° NNW 20:33:32 21° NNE 20:37:46 10° E
Meteor 2-12 Rocket 4.4 20:28:46 10° N 20:34:52 77° ENE 20:40:49 11° SSE
Ariane Rocket 3.2 20:32:21 13° SSE 20:36:49 62° ENE 20:41:50 10° N
Cosmos 2100 Rocket 4.3 20:30:47 10° SSW 20:36:59 72° WNW 20:43:19 10° N
ATLAS 2AS CENTAUR R/B 3.1 20:33:58 10° WSW 20:40:52 68° NW 20:47:41 10° NE
Cosmos 2369 3.8 20:35:53 10° NNW 20:41:38 78° ENE 20:46:24 15° SE
SL-4 R/B 4.0 20:40:01 10° WSW 20:42:20 16° SW 20:44:41 10° S
Spot 2 Rocket 4.1 20:38:00 10° S 20:42:53 53° W 20:47:50 10° NNW
Cosmos 2322 Rocket 3.6 20:38:56 10° NNW 20:43:55 30° NE 20:48:53 10° ESE
Cosmos 2082 Rocket 2.6 20:42:20 10° S 20:47:40 42° ESE 20:53:01 10° NE
Okean 2 Rocket 4.3 20:43:28 10° SSW 20:47:45 45° WNW 20:52:06 10° N
USA 305 2.6 20:44:30 10° WNW 20:48:35 70° SSW 20:51:08 19° ESE
Cosmos 1437 Rocket 4.2 20:47:59 16° ESE 20:49:07 18° E 20:51:37 10° NE
Cosmos 2151 3.6 20:46:23 10° N 20:50:17 39° ENE 20:52:53 18° SE
Cosmos 1626 Rocket 3.7 20:52:46 10° N 20:57:05 62° ENE 21:00:04 19° SSE
Cosmos 2233 Rocket 4.0 20:52:16 10° S 20:58:29 79° E 21:04:40 10° NNE
Cosmos 1607 4.1 20:52:43 10° SSW 20:58:36 50° ESE 21:04:38 10° NE
Cosmos 2228 2.8 20:55:36 10° S 20:59:40 81° E 21:03:48 10° NNE
USA 186 3.6 20:58:50 10° SSW 21:00:58 21° W 21:03:09 10° NW
Timation 1 Rocket 4.5 20:56:01 10° SW 21:02:02 81° NW 21:08:06 10° NNE
Okean O Rocket 3.0 20:58:21 10° SSW 21:02:15 33° W 21:06:11 10° NNW
Tsikada Rocket 4.1 20:57:01 10° NNW 21:03:13 77° W 21:08:51 13° S
Cosmos 2278 4.4 20:57:47 10° NNW 21:03:20 46° NE 21:07:47 15° ESE
CZ-4C R/B 1.8 21:04:56 10° SW 21:09:16 86° SE 21:14:59 10° NE
Cosmos 1725 Rocket 4.4 21:03:24 10° SSW 21:09:39 66° WNW 21:15:54 10° N
Cosmos 1992 Rocket 4.4 21:05:58 16° S 21:09:50 44° ESE 21:14:46 10° NE
Meteor 1-20 Rocket 4.2 21:04:22 10° N 21:09:55 70° ENE 21:13:53 20° SSE
Cosmos 1452 Rocket 3.7 21:05:03 10° SSW 21:10:16 78° WNW 21:15:32 10° NNE
COSMOS 2406 4.0 21:07:29 18° SSE 21:10:52 33° ESE 21:15:55 10° NE
SL-16 R/B 2.5 21:05:15 10° NNW 21:10:53 61° NE 21:14:58 19° SE
Helios 1A 4.3 21:08:58 10° NE 21:12:01 21° E 21:13:02 19° ESE
ATLAS 3B R/B 4.1 21:07:54 10° NW 21:14:32 32° WSW 21:20:47 10° S
Okean-O 4.4 21:11:31 10° SSW 21:15:15 27° W 21:19:01 10° NW
Cosmos 1805 3.9 21:13:55 10° N 21:16:53 31° ENE 21:18:02 24° ESE
CZ-4B R/B 3.9 21:19:07 16° S 21:22:48 53° W 21:27:31 10° NNW
Cosmos 2333 Rocket 2.4 21:18:07 10° NNW 21:23:49 66° NE 21:27:39 21° SE
Cosmos 1455 Rocket 4.3 21:22:01 10° SW 21:26:10 40° WNW 21:30:21 10° N
Cosmos 1302 Rocket 4.0 21:22:46 10° SSW 21:27:57 86° WNW 21:33:10 10° NNE
Cosmos 2098 Rocket 4.0 21:25:32 24° SE 21:28:03 39° E 21:32:19 10° NNE
Meteor 1-25 Rocket 4.3 21:23:13 10° N 21:28:58 75° ENE 21:32:32 23° SSE
Cosmos 1980 Rocket 3.6 21:29:20 10° NW 21:34:10 29° WSW 21:38:33 12° SSW
CZ-4B R/B 4.3 21:33:11 13° SSW 21:35:29 24° W 21:38:20 10° NW
Cosmos 2061 Rocket 4.2 21:30:18 10° SSW 21:36:30 70° WNW 21:42:48 10° N
Cosmos 1782 4.2 21:33:46 10° SW 21:36:57 31° WNW 21:40:09 10° N
Cosmos 1544 Rocket 3.5 21:35:33 22° S 21:38:23 88° E 21:42:45 10° NNE
Cosmos 724 4.4 21:33:14 10° SW 21:39:17 85° NW 21:45:13 10° NE
NOSS 3-3 (A) 3.7 21:35:00 10° SSW 21:40:08 58° SE 21:46:18 10° NE
DNEPR-1 R/B 4.3 21:39:51 10° NW 21:45:04 75° NE 21:49:21 21° SE
Cosmos 1933 3.1 21:44:20 31° S 21:46:03 80° E 21:49:52 10° NNE
Cosmos 2084 Rocket 4.3 21:44:58 10° WNW 21:48:49 35° SW 21:50:19 26° SSW
Okean 1 4.0 21:49:59 29° ESE 21:50:29 30° E 21:53:40 10° NNE
Cosmos 1758 Rocket 4.3 21:46:54 10° NNW 21:51:05 46° W 21:53:42 21° SSW
Helios 1B rocket 2.3 21:51:51 37° SE 21:52:56 56° ENE 21:56:24 10° N
CZ-2C R/B 4.1 21:55:17 15° WSW 21:56:19 18° W 21:58:23 10° NW
Cosmos 1464 Rocket 4.0 21:53:23 25° S 21:57:03 67° E 22:03:11 10° NNE
Cosmos 1513 Rocket 4.5 21:56:21 19° SSW 22:00:58 85° W 22:07:11 10° N
Cosmos 2360 Rocket 2.3 21:55:19 10° NNW 22:01:01 73° NE 22:04:14 27° SE
Meteor 2-10 4.2 21:58:09 10° NNW 22:03:54 88° E 22:06:57 29° SSE
Cosmos 1825 Rocket 3.4 22:03:11 10° N 22:07:32 85° E 22:09:11 37° SSE
NOSS 3-3 (C) 3.7 22:02:52 11° SW 22:08:00 72° SE 22:14:27 10° NE
Geosat 4.0 22:03:06 10° NNE 22:08:08 88° NW 22:12:24 15° SW
ALOS 2 3.5 22:06:32 26° ESE 22:08:27 39° ENE 22:12:33 10° N
ARIANE 5 R/B 3.2 22:07:11 29° SE 22:09:04 47° ENE 22:13:21 10° N
Cosmos 1953 Rocket 3.9 22:04:52 10° N 22:09:12 55° ENE 22:10:47 34° SE
ISS -3.0 22:05:57 10° WSW 22:08:14 37° SW 22:08:14 37° SW
Cosmos 1072 Rocket 4.5 22:08:18 24° S 22:12:19 89° E 22:18:41 10° N
Cosmos 2058 Rocket 4.2 22:11:46 25° ESE 22:12:47 28° E 22:16:29 10° NNE
USA 305 4.0 22:10:23 10° W 22:13:09 21° SW 22:13:09 21° SW
BREEZE-M R/B 4.2 22:07:41 10° W 22:16:15 75° S 22:21:55 10° ESE
Cosmos 1602 Rocket 4.3 22:12:40 10° NNW 22:16:44 43° W 22:18:42 26° SSW
Cosmos 1092 Rocket 4.2 22:11:31 10° N 22:17:37 61° ENE 22:20:51 29° SE
Cosmos 2219 Rocket 2.4 22:12:55 10° NNW 22:18:34 65° NE 22:21:48 26° SE
CZ-2C R/B 4.2 22:14:43 10° NNE 22:18:56 42° E 22:20:05 35° SE
DEBRIS 4.3 22:15:27 10° W 22:19:37 68° S 22:35:34 10° E
NOSS 3-4 (A) 3.7 22:14:44 10° NW 22:21:17 80° SW 22:26:01 25° SE
NOSS 3-4 (C) 3.7 22:15:20 10° NW 22:21:55 80° SW 22:26:40 25° SE
Cosmos 1437 Rocket 3.6 22:21:47 23° SW 22:23:31 41° WNW 22:26:56 10° N
Cosmos 540 Rocket 4.3 22:23:21 30° SE 22:24:38 34° ESE 22:29:15 10° NE
Cosmos 1461 2.9 22:26:32 44° ESE 22:26:32 44° ESE 22:29:55 10° NE
Cosmos 2322 Rocket 2.2 22:22:50 10° NW 22:28:29 73° WSW 22:31:03 34° SSE
Cosmos 2034 Rocket 4.0 22:27:37 29° S 22:31:05 79° E 22:37:28 10° NNE
Cosmos 2082 Rocket 3.2 22:26:14 10° WSW 22:31:44 46° NW 22:37:15 10° NNE
ATLAS 2AS CENTAUR R/B 4.3 22:26:35 10° WNW 22:32:51 36° NNW 22:39:04 10° NE
Cosmos 220 Rocket 3.7 22:32:36 42° SSW 22:33:54 86° ESE 22:38:02 10° NNE
Cosmos 1536 2.9 22:33:48 10° N 22:37:24 54° ENE 22:38:06 45° ESE
Cosmos 1707 3.0 22:38:21 36° ENE 22:38:21 36° ENE 22:40:34 10° NNE
USA 234 3.4 22:31:58 10° ENE 22:38:20 51° SE 22:42:49 20° SSW
ACS3 Solar Sail 3.9 22:38:20 10° NE 22:40:50 13° ENE 22:43:20 10° ESE
COSMOS 2428 3.8 22:36:36 10° NNW 22:42:00 41° NE 22:46:33 14° ESE
Cosmos 2237 Rocket 4.1 22:40:26 10° NNW 22:45:11 26° NE 22:49:53 10° E
Helios 1A 3.7 22:43:08 10° N 22:46:55 45° WNW 22:48:44 26° SW
Cosmos 1503 Rocket 4.1 22:41:59 10° NNW 22:47:09 63° WSW 22:49:02 37° S
Cosmos 1777 Rocket 4.4 22:42:18 10° NW 22:47:22 50° WSW 22:49:16 34° SSW
Cosmos 2278 4.4 22:42:04 10° NW 22:47:25 42° WSW 22:49:38 29° SSW
Cosmos 1763 Rocket 3.7 22:45:39 37° SSE 22:47:27 56° ESE 22:52:37 10° NNE
Cosmos-2242 2.9 22:47:28 49° SSE 22:48:25 67° E 22:52:31 10° NNE
CZ-2C R/B 4.2 22:44:39 10° NNE 22:49:50 35° E 22:51:56 27° SE
Cosmos 990 Rocket 3.9 22:45:22 10° NNW 22:50:33 80° WSW 22:52:30 39° SSE
ARGOS Delta rocket 4.1 22:49:23 10° NNE 22:54:19 61° E 22:56:07 38° SSE
SL-16 R/B 3.4 22:49:47 10° NW 22:54:40 30° WSW 22:56:47 23° SW
Cosmos 1606 Rocket 4.2 22:52:45 28° SW 22:54:43 48° WNW 22:58:56 10° N
COSMOS 2406 3.8 22:49:26 11° SW 22:54:54 57° NW 23:00:35 10° NNE
USA 290 2.3 22:56:48 62° ENE 22:56:48 62° ENE 22:59:40 10° NNE
Cosmos 1354 Rocket 4.0 22:52:09 10° NNW 22:57:24 73° WSW 22:59:19 39° S
CZ-4C R/B 3.7 22:53:35 10° W 22:58:08 36° NNW 23:03:57 10° NE
Cosmos 1634 Rocket 4.0 22:57:50 34° S 23:00:41 75° E 23:06:53 10° NNE
Cosmos 1766 2.8 22:58:02 10° NNW 23:01:14 62° W 23:01:17 62° WSW
Cosmos 1470 2.7 23:00:43 10° N 23:03:58 50° ENE 23:04:12 49° E
Cosmos 2279 Rocket 4.2 23:01:48 33° SSE 23:04:35 59° E 23:10:44 10° NNE
SeaSat 1 2.8 23:03:53 26° SE 23:06:35 62° NE 23:11:26 10° NNW
Cosmos 2333 Rocket 3.5 23:02:58 10° NW 23:07:42 28° WSW 23:09:39 23° SW
Cosmos 1726 Rocket 4.1 23:06:20 31° SW 23:07:48 45° WNW 23:11:43 10° N
Cosmos 2221 3.2 23:09:57 33° ESE 23:10:44 37° E 23:14:36 10° NNE
Meteor 2-2 Rocket 4.2 23:10:20 35° SSW 23:12:50 90° ESE 23:18:36 10° NNE
Cosmos 1842 3.0 23:13:51 54° E 23:13:51 54° E 23:16:47 10° NNE
BREEZE-M DEB (TANK) 3.6 23:10:27 10° W 23:17:47 54° S 23:22:41 10° ESE
CZ-2C R/B 2.8 23:16:22 32° SE 23:18:49 67° ENE 23:24:02 10° N
Cosmos 1833 4.1 23:17:41 35° SSW 23:20:09 78° ESE 23:25:49 10° NNE
NOSS 0 Rocket 4.3 23:17:12 10° NNW 23:23:20 60° NE 23:28:04 17° SE
KORONAS-FOTON 3.4 23:25:14 71° WSW 23:25:27 74° WNW 23:28:51 10° N
Helios 1B rocket 4.3 23:25:48 14° W 23:26:15 14° W 23:28:15 10° NW
SAR-Lupe-2 4.1 23:26:37 39° W 23:26:37 39° W 23:29:46 10° NNW
Cosmos 1975 2.5 23:24:05 10° N 23:27:47 77° ENE 23:28:17 63° SE
Aureole 1 Rocket 3.8 23:24:21 10° NNW 23:29:32 66° WSW 23:32:03 36° S
Cosmos 2266 Rocket 4.0 23:25:24 10° N 23:31:27 69° ENE 23:34:28 31° SSE
Cosmos 2322 3.7 23:26:35 10° NNW 23:32:20 84° ENE 23:35:16 30° SE
Cosmos 1812 Rocket 4.0 23:34:01 40° SE 23:35:07 50° E 23:39:24 10° NNE
Cosmos 2297 Rocket 3.8 23:33:58 17° SE 23:35:47 20° E 23:39:47 10° NE
Cosmos 44 3.4 23:30:30 10° NW 23:35:55 75° SW 23:38:07 36° SSE
Cosmos 1271 Rocket 2.2 23:38:07 78° SSE 23:38:17 83° ESE 23:41:43 10° NNE
Cosmos 372 Rocket 3.9 23:36:48 10° NNW 23:41:55 66° WSW 23:43:34 41° S
RESURS DK-1 2.4 23:39:00 10° NNW 23:42:59 72° NE 23:44:13 42° SE
Cosmos 1937 Rocket 3.5 23:38:04 10° NNW 23:43:16 77° ENE 23:45:41 32° SE
Cosmos 2360 Rocket 3.5 23:39:59 10° NW 23:44:29 25° WSW 23:45:58 22° SW
ALOS 2 3.8 23:43:55 27° WSW 23:44:53 30° W 23:48:46 10° NNW
ARIANE 5 R/B 4.0 23:44:33 23° WSW 23:45:35 25° W 23:49:17 10° NW
ISS-0.423:50:53E23:50:53E23:41:23W
Meteor 1-11 Rocket 3.7 23:41:10 10° NNW 23:46:57 84° ENE 23:49:32 34° SSE
GP-B 3.0 23:43:38 10° N 23:48:02 89° E 23:49:14 48° S
Cosmos 2058 Rocket 4.0 23:48:53 28° WSW 23:50:30 38° WNW 23:54:35 10° N
Cosmos 468 Rocket 4.0 23:51:07 37° SSW 23:53:17 88° WNW 23:58:35 10° NNE
